When you browse on this site, cookies collect data to enhance your experience and personalize the content and advertising you see.
Visit our Privacy Policy to learn more. By continuing to use the site, you agree to this use of cookies and data.
  • In United Kingdom
  • List of Countries
  • For 7 days
  • Water Temperature
  • Weather Map
  • Weather Widgets
  • user-avatar
    Login

    Hourly Weather Monor

    Today, 1 June, Monday

    Time Temperature Precipitation Wind Pressure Humidity
    00:00 +12°C° 0.2 mm 2 mps 748 mmHg 86%
    01:00 +12°C° 0 mm 3 mps 748 mmHg 90%
    02:00 +11°C° 0.3 mm 3 mps 748 mmHg 90%
    03:00 +11°C° 0.3 mm 3 mps 748 mmHg 90%
    04:00 +11°C° 0.3 mm 3 mps 748 mmHg 90%
    05:00 +12°C° 0.1 mm 3 mps 748 mmHg 87%
    06:00 +12°C° 0.1 mm 3 mps 748 mmHg 84%
    07:00 +13°C° 0 mm 3 mps 749 mmHg 81%
    08:00 +16°C° 0 mm 3 mps 749 mmHg 72%
    09:00 +18°C° 0 mm 3 mps 749 mmHg 63%
    10:00 +21°C° 0 mm 4 mps 749 mmHg 54%
    11:00 +21°C° 0.2 mm 3 mps 749 mmHg 52%
    12:00 +22°C° 0.2 mm 3 mps 748 mmHg 50%
    13:00 +22°C° 0.2 mm 3 mps 748 mmHg 49%
    14:00 +22°C° 0.1 mm 3 mps 748 mmHg 50%
    15:00 +22°C° 0.1 mm 3 mps 748 mmHg 51%
    16:00 +22°C° 0.1 mm 3 mps 747 mmHg 52%
    17:00 +20°C° 0.3 mm 2 mps 747 mmHg 59%
    18:00 +19°C° 0.3 mm 2 mps 747 mmHg 66%
    19:00 +17°C° 0.3 mm 2 mps 747 mmHg 73%
    20:00 +16°C° 0.1 mm 3 mps 747 mmHg 75%
    21:00 +14°C° 0.1 mm 3 mps 748 mmHg 76%
    22:00 +13°C° 0.1 mm 4 mps 748 mmHg 78%
    23:00 +13°C° 0 mm 3 mps 748 mmHg 76%

    Tomorrow, 2 June, Tuesday

    Time Temperature Precipitation Wind Pressure Humidity
    00:00 +12°C° 0 mm 3 mps 748 mmHg 74%
    01:00 +13°C° 0 mm 2 mps 749 mmHg 72%
    02:00 +12°C° 0 mm 2 mps 748 mmHg 71%
    03:00 +12°C° 0 mm 2 mps 748 mmHg 71%
    04:00 +12°C° 0 mm 1 mps 748 mmHg 71%
    05:00 +13°C° 0 mm 2 mps 748 mmHg 68%
    06:00 +13°C° 0 mm 2 mps 748 mmHg 66%
    07:00 +14°C° 0 mm 2 mps 748 mmHg 64%
    08:00 +15°C° 0.1 mm 2 mps 748 mmHg 61%
    09:00 +16°C° 0.1 mm 3 mps 748 mmHg 58%
    10:00 +17°C° 0.1 mm 3 mps 748 mmHg 55%
    11:00 +18°C° 0.2 mm 3 mps 747 mmHg 53%
    12:00 +19°C° 0.2 mm 3 mps 747 mmHg 51%
    13:00 +19°C° 0.2 mm 3 mps 747 mmHg 48%
    14:00 +19°C° 0 mm 3 mps 746 mmHg 48%
    15:00 +20°C° 0 mm 3 mps 746 mmHg 47%
    16:00 +20°C° 0 mm 3 mps 745 mmHg 46%
    17:00 +19°C° 0 mm 2 mps 745 mmHg 50%
    18:00 +18°C° 0 mm 2 mps 745 mmHg 55%
    19:00 +17°C° 0 mm 2 mps 745 mmHg 59%
    20:00 +16°C° 0.1 mm 2 mps 745 mmHg 63%
    21:00 +15°C° 0.1 mm 2 mps 745 mmHg 67%
    22:00 +13°C° 0.1 mm 3 mps 745 mmHg 70%
    23:00 +13°C° 0.1 mm 2 mps 745 mmHg 74%

    Day after tomorrow, 3 June, Wednesday

    Time Temperature Precipitation Wind Pressure Humidity
    00:00 +12°C° 0.1 mm 2 mps 745 mmHg 78%
    01:00 +10°C° 0.1 mm 2 mps 744 mmHg 82%
    02:00 +9°C° 0 mm 2 mps 744 mmHg 84%
    03:00 +9°C° 0 mm 2 mps 744 mmHg 85%
    04:00 +8°C° 0 mm 2 mps 743 mmHg 87%
    05:00 +10°C° 0 mm 3 mps 743 mmHg 81%
    06:00 +12°C° 0 mm 3 mps 743 mmHg 75%
    07:00 +13°C° 0 mm 4 mps 743 mmHg 69%
    08:00 +15°C° 0 mm 4 mps 743 mmHg 63%
    09:00 +17°C° 0 mm 4 mps 743 mmHg 58%
    10:00 +19°C° 0 mm 4 mps 743 mmHg 52%
    11:00 +19°C° 0 mm 4 mps 742 mmHg 53%
    12:00 +19°C° 0 mm 4 mps 742 mmHg 53%
    13:00 +19°C° 0 mm 4 mps 741 mmHg 54%
    14:00 +20°C° 0 mm 4 mps 741 mmHg 52%
    15:00 +21°C° 0 mm 3 mps 741 mmHg 51%
    16:00 +21°C° 0 mm 3 mps 741 mmHg 49%
    17:00 +20°C° 0 mm 3 mps 741 mmHg 55%
    18:00 +19°C° 0 mm 2 mps 740 mmHg 61%
    19:00 +17°C° 0 mm 2 mps 740 mmHg 67%
    20:00 +17°C° 0 mm 2 mps 740 mmHg 71%
    21:00 +16°C° 0 mm 2 mps 741 mmHg 74%
    22:00 +15°C° 0 mm 2 mps 741 mmHg 77%
    23:00 +14°C° 0 mm 2 mps 741 mmHg 80%

    4 June, Thursday

    Time Temperature Precipitation Wind Pressure Humidity
    00:00 +14°C° 0 mm 1 mps 740 mmHg 83%
    01:00 +14°C° 0 mm 1 mps 740 mmHg 86%
    02:00 +13°C° 0 mm 1 mps 740 mmHg 87%
    03:00 +13°C° 0 mm 1 mps 740 mmHg 87%
    04:00 +12°C° 0 mm 1 mps 740 mmHg 87%
    05:00 +14°C° 0 mm 1 mps 739 mmHg 83%
    06:00 +15°C° 0 mm 1 mps 739 mmHg 79%
    07:00 +16°C° 0 mm 2 mps 739 mmHg 75%
    08:00 +18°C° 0 mm 2 mps 739 mmHg 72%
    09:00 +19°C° 0 mm 3 mps 739 mmHg 69%
    10:00 +21°C° 0 mm 4 mps 739 mmHg 66%
    11:00 +21°C° 0.1 mm 4 mps 739 mmHg 66%
    12:00 +21°C° 0.1 mm 4 mps 739 mmHg 66%
    13:00 +21°C° 0.1 mm 5 mps 738 mmHg 67%
    14:00 +22°C° 0.5 mm 5 mps 738 mmHg 66%
    15:00 +22°C° 0.5 mm 5 mps 738 mmHg 65%
    16:00 +23°C° 0.5 mm 5 mps 737 mmHg 64%
    17:00 +22°C° 0.4 mm 4 mps 737 mmHg 67%
    18:00 +21°C° 0.4 mm 4 mps 737 mmHg 70%
    19:00 +20°C° 0.4 mm 3 mps 737 mmHg 73%
    20:00 +19°C° 0.2 mm 4 mps 737 mmHg 74%
    21:00 +18°C° 0.2 mm 4 mps 737 mmHg 76%
    22:00 +16°C° 0.2 mm 5 mps 737 mmHg 77%
    23:00 +17°C° 0 mm 4 mps 737 mmHg 78%

    5 June, Friday

    Time Temperature Precipitation Wind Pressure Humidity
    00:00 +17°C° 0 mm 4 mps 737 mmHg 78%
    01:00 +17°C° 0 mm 3 mps 736 mmHg 78%
    02:00 +17°C° 0 mm 3 mps 737 mmHg 77%
    03:00 +16°C° 0 mm 3 mps 737 mmHg 77%
    04:00 +16°C° 0 mm 3 mps 737 mmHg 76%
    05:00 +17°C° 0.1 mm 3 mps 737 mmHg 75%
    06:00 +18°C° 0.1 mm 4 mps 737 mmHg 73%
    07:00 +19°C° 0.1 mm 4 mps 737 mmHg 72%
    08:00 +20°C° 0 mm 5 mps 737 mmHg 68%
    09:00 +22°C° 0 mm 6 mps 737 mmHg 64%
    10:00 +23°C° 0 mm 6 mps 737 mmHg 59%
    11:00 +24°C° 0.7 mm 6 mps 737 mmHg 61%
    12:00 +25°C° 0.7 mm 5 mps 737 mmHg 64%
    13:00 +25°C° 0.7 mm 4 mps 736 mmHg 66%
    14:00 +23°C° 1.8 mm 4 mps 736 mmHg 70%
    15:00 +22°C° 1.8 mm 4 mps 736 mmHg 74%
    16:00 +21°C° 1.8 mm 4 mps 736 mmHg 79%
    17:00 +19°C° 1.7 mm 5 mps 737 mmHg 83%
    18:00 +17°C° 1.7 mm 5 mps 737 mmHg 88%
    19:00 +15°C° 1.7 mm 6 mps 737 mmHg 92%
    20:00 +14°C° 1.2 mm 6 mps 738 mmHg 90%
    21:00 +13°C° 1.2 mm 6 mps 738 mmHg 89%
    22:00 +11°C° 1.2 mm 6 mps 739 mmHg 87%
    23:00 +11°C° 0 mm 6 mps 739 mmHg 86%

    6 June, Saturday

    Time Temperature Precipitation Wind Pressure Humidity
    00:00 +12°C° 0 mm 5 mps 739 mmHg 84%
    01:00 +12°C° 0 mm 5 mps 740 mmHg 83%
    02:00 +11°C° 0 mm 6 mps 740 mmHg 80%
    03:00 +11°C° 0 mm 6 mps 741 mmHg 77%
    04:00 +11°C° 0 mm 6 mps 741 mmHg 74%
    05:00 +13°C° 0 mm 6 mps 742 mmHg 71%
    06:00 +12°C° 0 mm 7 mps 742 mmHg 68%
    07:00 +14°C° 0 mm 7 mps 743 mmHg 65%
    08:00 +14°C° 0.1 mm 6 mps 743 mmHg 64%
    09:00 +15°C° 0.1 mm 6 mps 744 mmHg 62%
    10:00 +16°C° 0.1 mm 5 mps 744 mmHg 61%
    11:00 +17°C° 0 mm 5 mps 744 mmHg 59%
    12:00 +19°C° 0 mm 4 mps 744 mmHg 57%
    13:00 +20°C° 0 mm 4 mps 744 mmHg 55%
    14:00 +20°C° 0 mm 4 mps 744 mmHg 54%
    15:00 +21°C° 0 mm 4 mps 745 mmHg 53%
    16:00 +21°C° 0 mm 4 mps 745 mmHg 52%
    17:00 +20°C° 0 mm 3 mps 745 mmHg 58%
    18:00 +19°C° 0 mm 3 mps 745 mmHg 65%
    19:00 +18°C° 0 mm 2 mps 745 mmHg 72%
    20:00 +17°C° 0 mm 2 mps 745 mmHg 73%
    21:00 +16°C° 0 mm 2 mps 746 mmHg 75%
    22:00 +15°C° 0 mm 1 mps 746 mmHg 76%
    23:00 +15°C° 0 mm 1 mps 746 mmHg 77%
    Show more